COSMOS 2090

Satellite information

Favourite Embed

Satellite Type and Status

PAYLOADIN ORBIT

Key statistics

Satellite COSMOS 2090 at a glance.

Uptime

12866

Days in orbit

Revolutions

≈ 12.7

Per day

Orbit

LEO

Low Earth Orbit

Inclination

82.6

Latest

Satellite identification and parameters

Extended collection of information and parameters for COSMOS 2090.

Object identification

Identified? True

Debris? False

Object name: COSMOS 2090

International designator: 1990-070A

Object number (NORAD): 20735

Object ID (CCSDS): 20735

Country: COMMONWEALTH OF INDEPENDENT STATES (CIS)

Current information (Y/N): Y

RCS size: LARGE

Orbital parameters

Period: 113.802 minutes

Inclination: 82.5669 deg

SMA: 7779.045 km

Apoapsis: 1411.581 km

Periapsis: 1390.24 km

RAAN: 61.1406 deg

Eccentricy: 0.00137173

Argument of periapsis: 228.7992 deg

Mean anomaly: 195.9335 deg

Mean motion: 12.65357667 rev/day

Mean motion (dot): 0.00000042 rev/day2

B* drag term: 0.0001691346 1/REarth

Two-line elements (TLE)

Creation date: Oct. 28, 2025, 7:11 p.m.

Reference frame: TEME

Reference center: EARTH

Epoch: Oct. 28, 2025, 10:45 a.m. UTC

TLE line 0: 0 COSMOS 2090

TLE line 1: 1 20735U 90070A 25301.44823440 .00000042 00000-0 16913-3 0 9992

TLE line 2: 2 20735 82.5669 61.1406 0013717 228.7992 195.9335 12.65357667626626

Live tracking on map

Real-time ground track for satellite COSMOS 2090.

In-orbit conjunctions

There are no conjunctions computed for COSMOS 2090, at the moment. Check back to stay up to date, as we update our databases every day.

Go to all conjunctions

Associated space launch

Second generation store-dump military communications satellite

COSMOS 2090 was lifted into orbit during the mission ‘Tsiklon-3 | Strela-3 49 to 54’, on board a Tsiklon-3 space rocket.

The launch took place on Aug. 8, 1990, 4:15 a.m. from 32/2.

For more information about the launch, click the button.

Launch to space Tsiklon-3 | Strela-3 49 to 54
Tsiklon-3 | Strela-3 49 to 54

Agency: N/A

Status: Launch Successful

Launch date: Aug. 8, 1990, 4:15 a.m. UTC

Rocket: Tsiklon-3

Launch pad: 32/2

Location: Plesetsk Cosmodrome, Russian Federation

...

Latest news about this satellite

There are no fresh news available about this satellite. Check back as we update our databases every day.


Newsletter sign-up

Weekly statistics, charts and insights to help you stay on top of the space industry.